Regional Weather Roundup
Issued by NWS

Home | Current Version | Previous Version | Graphics & Text | Print | Product List | Glossary On
Versions: 1 2 3 4 5 6 7 8 9 10 11 12 13 14 15 16 17 18 19 20 21 22 23 24 25 26 27 28 29 30 31 32 33 34 35 36 37 38 39 40 41 42 43 44 45 46 47 48 49 50
000
ASUS43 KLOT 031708
RWRIL

ILLINOIS REGIONAL WEATHER ROUNDUP
NATIONAL WEATHER SERVICE CHICAGO/ROMEOVILLE IL
1200 PM CDT WED JUN 03 2015

NOTE: "FAIR" INDICATES FEW OR NO CLOUDS BELOW 12,000 FEET WITH NO
SIGNIFICANT WEATHER AND/OR OBSTRUCTIONS TO VISIBILITY.

* THESE STATIONS ARE NOT UNDER NWS QUALITY CONTROL. THEY ALSO MAY NOT
  REPORT WEATHER SUCH AS PRECIPITATION OR FOG.

ILZ001-002-007-009-015-016-024-031800-
NORTHWEST ILLINOIS

CITY           SKY/WX    TMP DP  RH WIND       PRES   REMARKS
MOLINE         PTSUNNY   73  57  57 SE16      29.98F
STERLING*      CLOUDY    73  57  56 SE8       30.02F
SAVANNA*       PTSUNNY   74  57  55 S12       29.99F
$$

ILZ003-004-008-010-011-017-018-031800-
NORTH CENTRAL ILLINOIS

CITY           SKY/WX    TMP DP  RH WIND       PRES   REMARKS
ROCKFORD       PTSUNNY   75  57  53 S12       30.04F
FREEPORT*      PTSUNNY   72  58  61 S10       30.04S
ROCHELLE*      PTSUNNY   72  56  57 S8        30.04S
DE KALB*       MOSUNNY   69  56  62 S9        30.04F
PERU*          PTSUNNY   73  56  56 SW5       30.03F
$$

ILZ005-006-012>014-019>023-031800-
NORTHEAST ILLINOIS

CITY           SKY/WX    TMP DP  RH WIND       PRES   REMARKS
CHICAGO-OHARE  MOSUNNY   71  54  54 S7        30.04F
CHICAGO-MIDWAY MOSUNNY   72  53  51 S7        30.05F
AURORA         SUNNY     73  55  53 SE10      30.04F
LANSING*       MOSUNNY   69  51  53 SE3       30.06F
JOLIET*        MOSUNNY   73  57  58 S6        30.05F
WAUKEGAN       SUNNY     64  52  64 E9        30.06S
DUPAGE AIRPORT SUNNY     71  54  54 VRB3      30.04F
KANKAKEE*      MOSUNNY   70  57  63 SE6       30.06F
WHEELING       SUNNY     71  52  50 SE7       30.06S
MORRIS*        MOSUNNY   74  56  53 SE7       30.03F
ROMEOVILLE*    SUNNY     71  54  54 S8        30.05F
NORTHERLY ISL    N/A     60  53  77 E8          N/A
$$

LMZ740>746-031800-
SOUTHERN LAKE MICHIGAN

STATION/POSITION SKY/WX   TEMP    WIND        PRES    VSBY  WAVE
                          AIR SEA DIR/SP/G                  HT/PER
                          (F)     (DEG/KT/KT) (MB)    (MI)  (FT/S)
SOUTHERN BUOY              45 39  120/  8/  8 1019.2F
HARRISON CRIB              57     110/ 13/ 13   N/A
BURNHAM HARBOR             60      80/  7/  8   N/A
CALUMET HARBOR             63      60/  9/ 10   N/A
BURNS HARBOR                      210/  4/  9 1019.0S
MICHIGAN CITY              61     350/  5/  7   N/A
MICHIGAN CITY 6N           58 59   30/  6/  6   N/A           0
ST. JOSEPH                 58 58   40/  4/  6   N/A           0
$$

ILZ025>027-034>036-040-047-049-050-058-095>099-031800-
WEST-CENTRAL ILLINOIS

CITY           SKY/WX    TMP DP  RH WIND       PRES   REMARKS
QUINCY         CLOUDY    65  57  75 S12       30.03S
GALESBURG*     MOSUNNY   71  58  63 SE9G17    30.01F
MACOMB*        MOSUNNY   70  58  66 S13       30.03F
JACKSONVILLE*  CLOUDY    70  60  70 S10G18    30.05S
PITTSFIELD*    CLOUDY    66  58  75 SE8       30.05S
$$

ILZ028>032-037-038-041>044-048-051>054-059>061-031800-
CENTRAL ILLINOIS

CITY           SKY/WX    TMP DP  RH WIND       PRES   REMARKS
PONTIAC        PTSUNNY   72  60  65 SE7       30.05F
BLOOMINGTON    PTSUNNY   70  59  68 S9        30.06S HAZE
DECATUR        PTSUNNY   70  57  63 SE8       30.05F
PEORIA         PTSUNNY   72  58  61 S14       30.04S
LACON*         PTSUNNY   71  58  63 S8        30.03S
LINCOLN*       PTSUNNY   71  58  63 S5        30.03S
SPRINGFIELD    PTSUNNY   72  58  61 S12       30.05F
TAYLORVILLE    CLOUDY    68  59  73 S7        30.05F
$$

ILZ033-039-045-046-055>057-062-063-031800-
EAST-CENTRAL ILLINOIS

CITY           SKY/WX    TMP DP  RH WIND       PRES   REMARKS
CHAMPAIGN      PTSUNNY   72  57  59 SE9       30.05F
DANVILLE*      MOSUNNY   69  56  64 SE6       30.05F
RANTOUL*       PTSUNNY   73  58  57 SE9       30.06S
MATTOON        CLOUDY    69  57  65 VRB5      30.05F
PARIS*         MOSUNNY   69  56  64 NE5       30.08F
$$

ILZ079-100>102-031800-
SOUTHWEST ILLINOIS

CITY           SKY/WX    TMP DP  RH WIND       PRES   REMARKS
BELLEVILLE     PTSUNNY   70  60  71 S7        30.05S
CAHOKIA*       CLOUDY    69  58  67 S8        30.05F
SPARTA*        CLOUDY    67  59  73 E6        30.07S
$$

ILZ064>066-069>071-074>076-080>082-084>086-088>090-092>094-031800-
SOUTH-CENTRAL ILLINOIS

CITY           SKY/WX    TMP DP  RH WIND       PRES   REMARKS
CARBONDALE     MOSUNNY   71  56  58 CALM      30.06S
CAIRO*         PTSUNNY   72  58  62 NW5       30.05S
EFFINGHAM*     CLOUDY    68  53  59 CALM      30.08F
MARION         MOSUNNY   70  57  64 MISG      30.07S
MT. VERNON     CLOUDY    68  55  64 SE5       30.08F
CENTRALIA*     CLOUDY    76  55  46 CALM      30.07F
SALEM*         PTSUNNY   70  57  64 S6        30.08S
METROPOLIS*    MOSUNNY   71  58  63 CALM      30.06S
$$

ILZ067-068-072-073-078-083-087-091-031800-
SOUTHEAST ILLINOIS

CITY           SKY/WX    TMP DP  RH WIND       PRES   REMARKS
LAWRENCEVILLE  PTSUNNY   68  54  60 MISG      30.08S
FLORA*         MOSUNNY   66  56  68 CALM      30.08S
FAIRFIELD*     CLOUDY    68  56  67 E3        30.07S
HARRISBURG*    MOSUNNY   69  57  65 E5        30.07F
ROBINSON*      CLOUDY    65  54  66 CALM      30.09F
CARMI*         MOSUNNY   70  52  52 N5        30.07S
$$

ABBREVIATIONS USED IN REMARKS
   TC - TEMPERATURE IN CELSIUS
  WCI - WIND CHILL INDEX
   HX - HEAT INDEX
  VSB - VISIBILITY
$$




USA.gov is the U.S. government's official web portal to all federal, state and local government web resources and services.